Regional Weather Roundup
Issued by NWS

Home | Current Version | Previous Version | Text Only | Print | Product List | Glossary Off
Versions: 1 2 3 4 5 6 7 8 9 10 11 12 13 14 15 16 17 18 19 20 21 22 23 24 25 26 27 28 29 30 31 32 33 34 35 36 37 38 39 40 41 42 43 44 45 46 47 48 49 50

000
ASUS43 KMKX 030100
RWRWI

WISCONSIN REGIONAL WEATHER ROUNDUP
NATIONAL WEATHER SERVICE MILWAUKEE/SULLIVAN WI
800 PM CDT WED SEP 02 2015

NOTE: "FAIR" INDICATES FEW OR NO CLOUDS BELOW 12,000 FEET WITH NO
SIGNIFICANT WEATHER AND/OR OBSTRUCTIONS TO VISIBILITY.

WIZ001-002-006>008-014>016-023>028-030200-
NORTHWEST WISCONSIN

CITY           SKY/WX    TMP DP  RH WIND       PRES   REMARKS
SUPERIOR ARPT  CLEAR     61  60  96 NE6       29.94R
ASHLAND        CLEAR     64  63  96 N5        29.95R
HAYWARD        CLOUDY    70  66  87 CALM      29.94F
SIREN          CLOUDY    71  67  87 CALM      29.92S
CUMBERLAND     CLOUDY    68  64  88 NE5       29.93S
RICE LAKE      CLOUDY    69  66  89 NE5       29.93S
CHETEK         CLOUDY   N/A N/A N/A MISG      29.92S
LADYSMITH      CLOUDY    69  67  93 N5        29.95S
EAU CLAIRE     NOT AVBL
MENOMONIE      CLOUDY    71  69  92 N6        29.90R
NEW RICHMOND   CLOUDY    70  68  94 NE5       29.90S
OSCEOLA        MOCLDY    69  69 100 NE5       29.93R
$$

WIZ003>005-009-010-017-018-030200-
NORTH CENTRAL WISCONSIN

CITY           SKY/WX    TMP DP  RH WIND       PRES   REMARKS
MANITOWISH WTR DRIZZLE   66  66 100 E5        29.97S
ARBOR VITAE    HVY RAIN  67  65  94 NE5       29.96S
WOODRUFF       HVY RAIN  67  65  94 NE5       29.96S
RHINELANDER    CLOUDY    69  67  93 NE5       29.96R
EAGLE RIVER    HVY RAIN  67  66  99 N9        29.96R
LAND O LAKES   LGT RAIN  66  65  97 NE6       29.99S
PHILLIPS       CLOUDY    67  67  98 NE3       29.94S
TOMAHAWK       CLOUDY    68  67  95 CALM      29.95R FOG
MEDFORD        CLOUDY    68  68  99 CALM      29.93R
MERRILL        LGT RAIN  70  69  98 CALM      29.94R
$$

WIZ029-030-035-036-043>047-030200-
CENTRAL WISCONSIN

CITY           SKY/WX    TMP DP  RH WIND       PRES   REMARKS
WAUSAU         CLOUDY    70  67  90 E9        29.91R
MOSINEE        CLOUDY    70  70 100 E7        29.93R
MARSHFIELD     CLOUDY    72  66  81 E6        29.92R
STEVENS POINT  CLOUDY    72  67  85 NE3       29.91R
WAUPACA        MOCLDY    81  66  60 SW5       29.90R HX  83
WAUTOMA        NOT AVBL
WISC RAPIDS    CLOUDY    78  68  71 CALM      29.92R HX  80
CAMP DOUGLAS   NOT AVBL
$$

WIZ011>013-019>022-031-037>040-048>050-030200-
NORTHEAST WISCONSIN

CITY           SKY/WX    TMP DP  RH WIND       PRES   REMARKS
ANTIGO         CLOUDY    68  67  98 E7        29.94S
SHAWANO        CLOUDY    73  66  80 E7        29.91S
OCONTO         MOCLDY    66  66 100 NE3       29.92R
STURGEON BAY   PTCLDY    66  63  88 E8        29.95R
GREEN BAY      PTCLDY    73  68  84 NE10      29.92R
MANITOWOC      NOT AVBL
APPLETON       NOT AVBL
CLINTONVILLE   LGT RAIN  72  66  83 E6        29.90R
OSHKOSH        CLEAR     76  68  76 S5        29.90R
$$

WIZ032>034-041-042-053>061-030200-
SOUTHWEST WISCONSIN

CITY           SKY/WX    TMP DP  RH WIND       PRES   REMARKS
LA CROSSE      CLEAR     79  70  74 S7        29.87S HX  82
SPARTA         CLEAR     77  67  69 CALM      29.89S
VIROQUA          N/A     76  69  79 S6        29.91F
BOSCOBEL       PTCLDY    81  69  67 VRB5      29.89F HX  84
PRAIRIE DU CHI CLOUDY    80  66  62 CALM      29.90S HX  82
PLATTEVILLE    PTCLDY    77  72  85 S6        29.94F
$$

WIZ056-057-062-063-064-067-068-030200-
SOUTH CENTRAL WISCONSIN

CITY           SKY/WX    TMP DP  RH WIND       PRES   REMARKS
REEDSBURG      CLOUDY    78  69  73 S7        29.89F HX  80
BARABOO/DELLS  MOCLDY    77  66  67 SW8       29.90S
LONE ROCK      NOT AVBL
MINERAL POINT  MOCLDY    79  70  73 S7        29.94S HX  81
MADISON        PTCLDY    80  68  66 S5        29.91F HX  83
MIDDLETON      PTCLDY    79  68  69 S6        29.92F HX  81
WATERTOWN      CLEAR     77  67  72 S3        29.91F
MONROE         CLOUDY    77  68  73 S8        29.94F
JANESVILLE     MOCLDY    79  68  69 S5        29.93F HX  81
$$

WIZ051-052-058>065-066-070>072-030200-
SOUTHEAST WISCONSIN

CITY           SKY/WX    TMP DP  RH WIND       PRES   REMARKS
MILWAUKEE      PTCLDY    81  69  67 S6        29.92F HX  84
WAUKESHA       CLEAR     79  68  69 S3        29.94F HX  81
MILWAUKEE/TIMM CLEAR     79  66  65 SW6       29.93F HX  81
RACINE         MOCLDY    79  69  71 S6        29.95F HX  81
BURLINGTON     PTCLDY    75  70  84 SW3       29.94F
KENOSHA        MOCLDY    80  70  71 CALM      29.94F HX  83
FOND DU LAC    CLEAR     76  68  76 S6        29.91R
SHEBOYGAN      PTCLDY    78  69  73 S9        29.90F HX  80
WEST BEND      CLEAR     75  64  69 CALM      29.92S
JUNEAU         CLEAR     77  69  75 S8        29.92F
$$

LSZ147-162-030200-
LAKE SUPERIOR

STATION/POSITION TIME  TEMP    WIND        PRES    WAVE
                       AIR SEA DIR/SP/G            HT/PER
                 (UTC) (F)     (DEG/KT/KT) (MB)    (FT/S)
W MID LAKE BUOY  2350   59 56   70/  6/  8 1014.0F   0
DEVILS ISLAND    0000   59      70/  7/  8 1014.1S
PORT WING        0000   63      40/  9/ 11 1013.9R
SAXON HARBOR     0000   65     290/  2/  5 1013.5
$$

LMZ867-665-643>646-030200-
LAKE MICHIGAN

STATION/POSITION TIME  TEMP    WIND        PRES    WAVE
                       AIR SEA DIR/SP/G            HT/PER
                 (UTC) (F)     (DEG/KT/KT) (MB)    (FT/S)
CHAMBERS ISLAND  0000   68      70/  9/ 15 1013.2F
S GREEN BAY BUOY 0000   68 67   40/ 10/ 14 1014.4F
N MID LAKE BUOY  2350   69 66   60/ 10/ 12 1013.4F   1
NORTHPORT PIER   0000   67      40/  3/ 10 1013.9R
SISTER BAY       0019   68     110/  9/ 12   N/A
ALGOMA LAKESHORE 2314           70/ 10/ 11   N/A
KEWAUNEE LAKESHO 0000   59      30/  2/  3 1012.0F
SHEBOYGAN LAKESH 0000   72     180/ 13/ 15 1012.5F
PORT WASHINGTON  0040   62     170/  2/  3 1013.5F
ATWATER BUOY     0000   60     160/  6/  8 1014.8F
MILWAUKEE LAKESH 0010   73     190/  4/  5   N/A
S MID LAKE BUOY  2350   74 72  160/  6/  6 1013.6S   0
KENOSHA   LAKESH 0000   77     190/  4/  7 1013.5F
$$

TC  - TEMPERATURE IN CELSIUS
VSB - VISIBILITY IN STATUTE MILES
WCI - WIND CHILL INDEX
HX  - HEAT INDEX



USA.gov is the U.S. government's official web portal to all federal, state and local government web resources and services.